Location: Bilsen
(53.7722°N, 9.8765°E)
Time: 03:29:06
(UTC+00:00)

Daily predictions for brighter satellites

Satellite Brightness Start Highest point End
(mag) Time Altitude Azimuth Time Altitude Azimuth Time Altitude Azimuth
Cosmos 2333 Rocket 4.4 01:37:49 21° NE 01:37:49 21° NE 01:39:46 10° NE
ATLAS 2AS CENTAUR R/B 3.9 01:39:29 43° N 01:39:29 43° N 01:45:27 10° NE
Cosmos 2322 Rocket 4.3 01:59:49 21° NNE 01:59:49 21° NNE 02:01:56 10° NNE
Cosmos 2237 Rocket 4.0 02:06:51 26° ENE 02:06:51 26° ENE 02:09:57 10° NE
Cosmos 2219 Rocket 3.8 02:17:03 32° NE 02:17:03 32° NE 02:19:57 10° NNE
CZ-4C R/B 3.8 02:16:59 31° E 02:16:59 31° E 02:20:43 10° NE
Cosmos 2360 Rocket 3.9 02:28:50 26° N 02:28:50 26° N 02:31:33 10° NNE
Cosmos 1943 Rocket 3.5 02:31:37 34° NNE 02:32:00 34° NE 02:37:01 10° ESE
COSMOS 2428 3.9 02:34:32 38° NNE 02:34:32 38° NNE 02:38:00 10° NNE
Cosmos 1980 Rocket 4.4 02:35:18 16° N 02:35:18 16° N 02:38:06 10° NNE
USA 215 3.5 02:30:02 10° ENE 02:35:33 62° E 02:35:33 62° E
CZ-2D R/B 4.4 02:40:47 10° N 02:41:50 15° N 02:41:50 15° N
SL-16 R/B 3.8 02:46:27 26° SE 02:47:33 28° ESE 02:52:19 10° NE
Cosmos 1980 4.2 02:55:23 56° ENE 02:55:23 56° ENE 02:59:56 10° NE
NOSS 3-1 (A) 3.9 02:56:40 72° S 02:56:40 72° S 03:04:19 10° SE
Cosmos 2369 Rocket 3.4 02:53:23 25° N 02:56:10 40° NE 03:01:33 10° ESE
SL-16 R/B 4.1 02:57:37 20° NNW 02:57:37 20° NNW 03:00:51 10° NNE
Cosmos 2344 4.5 02:59:32 37° NW 03:02:13 47° N 03:11:54 10° ENE
Nadezhda 3 Rocket 3.9 03:07:35 82° E 03:07:35 82° E 03:13:57 10° NNE
ADEOS II 3.8 03:12:06 10° N 03:14:18 23° NNW 03:14:18 23° NNW
Cosmos 1241 Rocket 4.3 03:17:38 82° SSE 03:17:46 83° SE 03:24:01 10° NE
Meteor 2-1 Rocket 4.3 03:18:56 71° NNE 03:18:56 71° NNE 03:23:53 10° NNE
Cosmos 2333 Rocket 3.1 03:19:49 39° NNW 03:19:49 39° NNW 03:24:09 10° NNE
IDEFIX/ARIANE 42P 2.9 03:17:36 10° NNE 03:21:52 59° N 03:21:52 59° N
Resurs 1-4 Rocket 4.4 03:25:47 10° NNW 03:26:42 13° NNW 03:26:42 13° NNW
Cosmos 2251 Rocket 4.3 03:28:27 37° SSE 03:30:04 49° ESE 03:35:10 10° NE
ATLAS 2AS CENTAUR R/B 3.9 03:26:54 27° NW 03:30:39 42° N 03:37:44 10° ENE
PAYLOAD A 4.2 03:28:44 10° NNE 03:33:34 63° ESE 03:34:30 52° SSE
Cosmos 1535 Rocket 4.3 03:32:56 10° NNW 03:39:12 72° W 03:41:21 42° SSW
NOSS 0 Rocket 3.9 03:40:41 59° WNW 03:41:03 61° NW 03:47:15 10° NNE
Cosmos 2322 Rocket 4.1 03:41:37 17° NNW 03:42:16 17° NNW 03:45:55 10° NNE
ATLAS CENTAUR R/B 1.9 03:46:18 59° SE 03:46:33 60° SE 03:50:55 10° NE
Lacrosse 5 2.1 03:47:37 56° S 03:47:37 56° S 03:51:56 10° SE
Cosmos 1455 3.9 03:50:36 26° N 03:50:36 26° N 03:52:20 10° N
Cosmos 2237 Rocket 2.2 03:48:41 58° WNW 03:48:48 58° NW 03:54:23 10° NNE
Cosmos 1743 Rocket 4.2 03:46:40 10° N 03:50:57 55° ENE 03:55:11 10° SSE
MSX 3.7 03:47:22 10° NNE 03:53:07 73° WNW 03:54:27 53° SW
H-2A R/B 3.5 03:49:04 10° NNE 03:53:17 47° E 03:57:25 11° S
ADEOS 3.4 03:49:46 10° NNE 03:55:02 82° WNW 03:56:18 53° SSW
CZ-2C R/B 2.5 03:51:30 10° NNE 03:56:45 83° ESE 03:59:16 31° S
BREEZE-M DEB (TANK) 3.6 03:54:29 42° WSW 03:56:56 72° S 04:01:06 10° E
STARLINK-1169 4.5 03:58:22 35° E 03:58:22 35° E 04:00:23 10° E
Meteor 1-31 Rocket 3.5 03:54:12 10° NNE 03:57:56 51° E 03:59:24 32° SSE
Cosmos 2219 Rocket 3.2 03:58:46 29° NW 03:58:51 29° NW 04:03:48 10° NNE
STARLINK-1178 4.4 04:00:17 37° E 04:00:17 37° E 04:02:23 10° E
STARLINK-1120 4.3 04:02:08 39° E 04:02:08 39° E 04:04:18 10° E
Cosmos 1356 Rocket 3.5 04:01:12 56° SSE 04:01:57 73° E 04:06:04 10° NNE
STARLINK-1131 4.1 04:04:12 41° E 04:04:12 41° E 04:06:28 10° E
CZ-4C R/B 2.4 04:02:10 50° WNW 04:03:20 60° NNW 04:09:51 10° NE
ARIANE 5 R/B 4.3 04:01:04 10° N 04:03:04 18° NNW 04:03:04 18° NNW
STARLINK-1190 4.0 04:06:14 44° E 04:06:14 44° E 04:08:35 10° E
Meteor 2-10 Rocket 3.4 04:03:59 39° SSW 04:05:59 78° WNW 04:11:10 10° NNE
Cosmos 1842 Rocket 4.1 04:04:03 10° S 04:08:26 59° E 04:12:52 10° NNE
STARLINK-1167 4.4 04:10:47 31° E 04:10:47 31° E 04:12:24 10° E
Cosmos 2360 Rocket 4.0 04:10:35 16° NW 04:11:45 17° NNW 04:15:25 10° NNE
Cosmos 1934 Rocket 4.3 04:08:01 10° NNW 04:13:53 43° W 04:19:49 10° SSW
STARLINK-1136 4.0 04:15:33 38° E 04:15:33 38° E 04:17:27 10° E
Cosmos 1943 Rocket 2.0 04:13:11 27° NW 04:16:07 62° WSW 04:21:32 10° SSE
COSMOS 2428 3.9 04:16:33 25° NW 04:17:20 26° NNW 04:22:07 10° NNE
ALOS 3.5 04:13:01 10° NNE 04:17:30 43° E 04:21:57 10° S
NOSS 2-1 (E) 3.2 04:17:28 59° S 04:17:59 71° SE 04:21:59 10° NE
USA 215 3.3 04:13:10 10° ENE 04:19:41 72° N 04:22:54 32° W
CZ-4B R/B 4.0 04:16:19 10° NNE 04:20:35 87° ESE 04:24:21 14° SSW
Cosmos 921 Rocket 3.2 04:16:24 10° NNW 04:20:53 72° ENE 04:25:16 10° SSE
Cosmos 1980 Rocket 4.5 04:18:08 10° NNW 04:21:09 14° N 04:24:08 10° NE
STARLINK-1129 2.9 04:24:44 77° SSE 04:24:44 77° SSE 04:27:53 10° E
COSMO-SKYMED 1 2.5 04:20:54 10° SSE 04:25:16 86° WSW 04:29:39 10° NNW
USA 116 4.1 04:22:51 10° SE 04:25:54 48° ENE 04:28:55 10° N
STARLINK-1134 2.9 04:26:34 78° S 04:26:34 78° S 04:29:47 10° E
STARLINK-1135 2.8 04:28:49 77° SSW 04:28:54 78° S 04:32:08 10° E
STARLINK-1141 2.8 04:30:54 75° SW 04:31:03 79° S 04:34:18 10° E
SL-16 R/B 2.2 04:28:21 29° SW 04:31:17 67° NW 04:36:58 10° NNE
STARLINK-1140 2.8 04:32:54 72° SW 04:33:08 79° S 04:36:22 10° E
STARLINK-1156 2.8 04:34:56 68° WSW 04:35:16 79° S 04:38:30 10° E
Cosmos 2221 2.5 04:31:13 10° S 04:35:29 82° E 04:39:49 10° NNE
STARLINK-1170 2.7 04:35:55 66° ESE 04:35:55 66° ESE 04:38:18 10° E
Cosmos 1605 Rocket 4.2 04:30:13 10° NNW 04:36:06 44° W 04:41:52 10° SSW
FENGYUN 3A 4.2 04:31:47 10° NNE 04:37:12 62° ESE 04:42:35 10° S
STARLINK-1148 2.8 04:36:58 64° WSW 04:37:22 79° S 04:40:38 10° E
STARLINK-1158 2.9 04:39:04 60° WSW 04:39:33 79° S 04:42:48 10° E
Cosmos 2369 Rocket 2.3 04:35:12 12° NW 04:40:26 53° WSW 04:45:58 10° S
Cosmos-2242 4.2 04:41:33 24° NW 04:41:33 24° NW 04:44:22 10° N
Spot 2 4.3 04:37:50 10° N 04:41:42 43° WNW 04:42:47 35° WSW
Aureole 2 Rocket 2.1 04:42:36 54° SW 04:42:36 54° SW 04:45:26 10° SSE
SL-16 R/B 4.4 04:40:06 10° NNW 04:42:58 14° N 04:45:51 10° NNE
Cosmos 2016 Rocket 4.3 04:36:49 10° N 04:43:02 70° ENE 04:49:18 10° SSE
Cosmos 614 Rocket 4.4 04:41:13 10° SSW 04:46:19 65° ESE 04:51:30 10° NNE
Cosmos 1603 4.2 04:41:54 10° SSW 04:47:32 62° ESE 04:53:09 10° NE
NOSS 3-4 (A) 4.4 04:42:04 14° NW 04:47:45 50° NNE 04:54:50 10° E
NOSS 3-4 (C) 4.4 04:42:09 14° NW 04:47:51 50° NNE 04:54:56 10° E
Meteor PRIRODA 3.5 04:45:45 10° N 04:49:29 75° WNW 04:53:09 10° SSW
Cosmos 1862 3.8 04:47:17 10° N 04:51:14 62° ENE 04:55:10 10° SSE
Cosmos 2263 4.2 04:46:51 10° NW 04:52:28 57° WSW 04:57:59 10° SSE
Cosmos 1943 3.9 04:48:12 10° S 04:53:39 55° ESE 04:59:10 10° NE
STARLINK-1179 2.3 04:55:12 55° WSW 04:55:38 74° S 04:58:15 10° E
Meteor 2-3 Rocket 4.1 04:50:30 10° NNW 04:55:47 40° W 05:01:07 10° SSW
STARLINK-1176 2.3 04:55:41 54° WSW 04:56:09 74° S 04:58:46 10° E
CZ-4B R/B 4.2 04:53:43 10° NNE 04:58:54 48° E 05:04:01 10° S
COSMOS 2455 4.1 04:54:42 10° NW 05:00:16 36° NNE 05:05:48 10° E
Cosmos 1656 Rocket 3.6 04:55:24 10° NW 05:01:04 72° WSW 05:06:44 10° SSE
IDEFIX/ARIANE 42P 4.0 04:58:12 10° N 05:01:47 19° NW 05:02:41 18° WNW
Cosmos 1484 Rocket 3.0 05:00:40 10° N 05:04:28 50° WNW 05:08:19 10° SW
Cosmos 2333 Rocket 3.9 05:01:49 14° NW 05:04:28 18° NNW 05:08:20 10° NNE
Cosmos 1633 2.5 05:01:04 10° NNW 05:04:40 57° W 05:08:15 10° S
Cosmos 1727 Rocket 4.0 05:01:36 10° SSW 05:07:40 56° WNW 05:13:45 10° N
Cosmos 1238 4.0 05:04:46 10° SSW 05:07:46 70° WNW 05:10:58 10° N
Cosmos 1805 Rocket 3.5 05:05:02 10° NNW 05:09:19 61° W 05:13:35 10° S
Cosmos 2173 Rocket 4.0 05:05:48 10° NNW 05:12:00 58° W 05:18:05 10° S
Cosmos 2251 Rocket 4.1 05:08:58 17° WSW 05:12:32 36° NW 05:17:27 10° NNE
SKYMED 2 4.2 05:09:39 10° SSW 05:13:34 32° W 05:17:31 10° NNW
Sich 1 2.9 05:09:51 10° NNW 05:14:08 73° W 05:18:24 10° S
STARLINK-1153 2.7 05:14:21 25° W 05:15:53 73° S 05:18:49 10° ESE
STARLINK-1180 2.7 05:14:33 25° W 05:16:07 73° S 05:19:04 10° ESE
STARLINK-1174 2.7 05:15:00 24° W 05:16:34 73° S 05:19:30 10° ESE
Cosmos 1500 Rocket 4.4 05:12:56 10° NNW 05:16:44 28° W 05:20:29 10° SSW
STARLINK-1139 2.7 05:15:13 24° W 05:16:47 73° S 05:19:43 10° ESE
STARLINK-1133 2.7 05:15:25 24° W 05:17:00 73° S 05:19:56 10° ESE
CZ-4B R/B 3.4 05:13:49 10° N 05:17:10 31° WNW 05:20:20 10° SW
STARLINK-1151 2.7 05:15:40 24° W 05:17:15 72° S 05:20:11 10° ESE
NOSS 2-1 (C) 3.7 05:15:15 20° W 05:17:25 44° NNW 05:21:27 10° NE
Cosmos 1346 Rocket 4.1 05:14:04 10° N 05:17:50 43° ENE 05:21:33 10° SE
STARLINK-1160 2.7 05:16:18 24° W 05:17:55 72° S 05:20:51 10° ESE
STARLINK-1161 2.7 05:16:32 23° W 05:18:09 72° S 05:21:05 10° ESE
STARLINK-1145 2.7 05:16:44 23° W 05:18:22 72° S 05:21:17 10° ESE
STARLINK-1172 2.7 05:16:57 23° W 05:18:35 72° S 05:21:31 10° ESE
STARLINK-1162 2.9 05:17:03 22° W 05:18:58 74° S 05:22:08 10° ESE
STARLINK-1182 2.7 05:17:23 23° W 05:19:03 72° S 05:21:58 10° ESE
STARLINK-1164 2.7 05:17:36 23° W 05:19:16 72° S 05:22:11 10° ESE
PSLV R/B 3.8 05:15:51 10° N 05:19:27 50° WNW 05:23:06 10° SW
STARLINK-1168 2.7 05:17:49 23° W 05:19:29 72° S 05:22:25 10° ESE
STARLINK-1183 2.7 05:18:27 22° W 05:20:09 72° S 05:23:05 10° ESE
STARLINK-1181 2.7 05:18:40 22° W 05:20:23 71° S 05:23:18 10° ESE
STARLINK-1157 2.9 05:18:51 21° W 05:20:51 74° S 05:24:00 10° ESE
STARLINK-1196 2.7 05:19:20 22° W 05:21:04 71° S 05:24:00 10° ESE
Cosmos 1238 Rocket 3.8 05:15:00 10° NNW 05:21:20 65° W 05:26:48 10° S
NOSS 2-1 (D) 3.8 05:19:14 19° W 05:21:30 41° NNW 05:25:32 10° NE
STARLINK-1186 2.7 05:19:46 21° W 05:21:31 71° S 05:24:26 10° ESE
STARLINK-1185 2.7 05:19:58 21° W 05:21:43 71° S 05:24:39 10° ESE
STARLINK-1175 2.7 05:20:12 21° W 05:21:57 71° S 05:24:53 10° ESE
Okean O Rocket 1.8 05:17:45 10° NNE 05:22:10 76° ESE 05:26:32 10° S
STARLINK-1147 2.7 05:20:24 21° W 05:22:11 71° S 05:25:06 10° ESE
STARLINK-1146 2.7 05:20:36 21° W 05:22:24 71° S 05:25:21 10° ESE
STARLINK-1152 2.7 05:20:50 21° W 05:22:38 71° S 05:25:34 10° ESE
STARLINK-1195 2.7 05:21:03 21° W 05:22:52 71° S 05:25:47 10° ESE
ATLAS 2AS CENTAUR R/B 3.3 05:15:05 10° NW 05:22:55 67° NE 05:30:08 10° ESE
STARLINK-1159 2.9 05:20:51 20° W 05:22:55 73° S 05:26:05 10° ESE
STARLINK-1137 2.7 05:21:16 21° W 05:23:05 71° S 05:26:00 10° ESE
STARLINK-1142 2.7 05:21:30 21° W 05:23:19 70° S 05:26:14 10° ESE
STARLINK-1127 2.7 05:21:42 20° W 05:23:31 70° S 05:26:27 10° ESE
STARLINK-1184 2.7 05:21:56 20° W 05:23:45 70° S 05:26:41 10° ESE
STARLINK-1193 2.7 05:22:08 20° W 05:23:59 70° S 05:26:54 10° ESE
PAYLOAD B 4.3 05:18:27 10° NNE 05:24:06 88° WNW 05:29:40 10° SSW
STARLINK-1194 2.7 05:22:21 20° W 05:24:12 70° S 05:27:07 10° ESE
Cosmos 1455 4.4 05:25:32 10° NW 05:25:32 10° NW 05:25:42 10° NW
Meteor 2-2 Rocket 4.4 05:19:02 10° SSW 05:25:02 66° WNW 05:31:04 10° N
STARLINK-1171 2.9 05:22:59 19° W 05:25:08 73° S 05:28:18 10° ESE
ATLAS CENTAUR R/B 2.3 05:22:30 16° W 05:25:44 36° NNW 05:29:45 10° NE
Cosmos 2100 Rocket 4.3 05:19:55 10° NNW 05:25:47 44° W 05:31:35 10° SSW
STARLINK-1155 3.0 05:24:44 18° W 05:26:58 72° S 05:30:08 10° ESE
Cosmos 1763 Rocket 4.0 05:22:08 10° NNW 05:27:28 65° ENE 05:32:45 10° SE
H-2A R/B 3.5 05:24:55 10° N 05:28:36 28° WNW 05:32:22 10° WSW
Cosmos 2322 Rocket 4.4 05:25:42 10° NNW 05:28:48 15° N 05:31:53 10° NE
Cosmos 1340 3.1 05:25:13 10° N 05:28:59 67° ENE 05:32:43 10° SSE
Lacrosse 5 3.4 05:26:51 14° W 05:29:08 18° SW 05:32:30 10° SSW
STARLINK-1166 3.0 05:26:52 17° W 05:29:11 71° S 05:32:21 10° ESE
STARLINK-1165 3.0 05:28:43 16° W 05:31:06 71° S 05:34:17 10° ESE
STARLINK-1149 2.6 05:29:32 18° W 05:31:23 62° S 05:34:03 10° ESE
GEOS 3 Rocket 3.7 05:26:43 10° NE 05:31:57 65° NW 05:37:13 10° WSW
Meteor 1-31 Rocket 4.1 05:29:14 10° NNW 05:32:04 20° WNW 05:34:48 11° WSW
STARLINK-1169 3.0 05:30:43 16° W 05:33:10 70° S 05:36:20 10° ESE
Cosmos 2237 Rocket 3.7 05:30:31 12° WNW 05:34:05 21° NNW 05:38:15 10° NNE
CZ-2C R/B 3.8 05:30:31 10° N 05:34:25 22° NW 05:38:16 10° WSW
STARLINK-1178 3.0 05:32:37 15° W 05:35:09 69° S 05:38:20 10° ESE
STARLINK-1132 2.8 05:34:49 15° W 05:36:58 61° SSW 05:39:43 10° ESE
Cosmos 2061 Rocket 4.1 05:30:50 10° NNW 05:36:58 54° W 05:42:59 10° SSW
STARLINK-1120 3.0 05:34:28 14° W 05:37:05 68° S 05:40:15 10° ESE
STARLINK-1131 3.0 05:36:36 14° W 05:39:18 67° S 05:42:27 10° ESE
STARLINK-1150 2.8 05:37:17 14° W 05:39:29 59° SSW 05:42:12 10° ESE
STARLINK-1124 4.4 05:37:50 10° SW 05:40:28 30° SSE 05:43:06 10° E
STARLINK-1163 2.8 05:38:34 14° W 05:40:51 59° SSW 05:43:36 10° ESE
STARLINK-1190 3.1 05:38:38 13° W 05:41:25 67° SSW 05:44:35 10° ESE
ADEOS Rocket 3.3 05:35:16 10° S 05:41:29 59° W 05:48:29 10° NNW
Cosmos 1459 Rocket 4.4 05:36:30 10° NNW 05:42:05 37° W 05:47:43 10° SSW
Cosmos 1023 Rocket 4.5 05:36:58 10° SSW 05:42:14 74° WNW 05:47:33 10° NNE
STARLINK-1173 2.8 05:40:14 13° W 05:42:33 57° SSW 05:45:15 10° ESE
STARLINK-1177 2.8 05:40:37 13° W 05:42:56 57° SSW 05:45:37 10° ESE
Cosmos 1315 Rocket 4.5 05:39:30 10° SSE 05:43:11 38° E 05:46:52 10° NNE
STARLINK-1167 2.8 05:41:41 13° W 05:44:04 57° SSW 05:46:45 10° ESE
Cosmos 2219 Rocket 4.1 05:41:37 10° NW 05:44:47 15° NNW 05:47:56 10° NNE
METEOR-M 4.4 05:40:50 10° N 05:45:55 45° WNW 05:50:59 10° SW
STARLINK-1108 4.5 05:44:55 10° SW 05:47:32 30° SSE 05:50:09 10° E
STARLINK-1071 4.5 05:45:09 10° SW 05:47:45 30° SSE 05:50:23 10° E
Cosmos 1151 Rocket 3.5 05:43:40 10° S 05:47:56 66° E 05:52:17 10° NNE
STARLINK-1110 4.5 05:45:22 10° SW 05:47:59 30° SSE 05:50:37 10° E
TELKOM 3 4.3 05:46:29 10° WSW 05:48:20 25° S 05:50:10 10° SE
STARLINK-1122 4.5 05:45:48 10° SW 05:48:25 30° SSE 05:51:03 10° E
STARLINK-1126 4.5 05:46:02 10° SW 05:48:39 30° SSE 05:51:18 10° E
STARLINK-1082 4.5 05:46:15 10° SW 05:48:53 30° SSE 05:51:31 10° E
STARLINK-1136 2.9 05:46:27 11° W 05:49:04 55° SSW 05:51:48 10° ESE
STARLINK-1100 4.5 05:46:28 10° SW 05:49:06 30° SSE 05:51:44 10° E
STARLINK-1083 4.5 05:46:42 10° SW 05:49:20 30° SSE 05:51:58 10° E
Cosmos 1328 Rocket 4.0 05:45:08 10° S 05:49:33 71° E 05:54:00 10° NNE
STARLINK-1125 4.5 05:46:55 10° SW 05:49:34 30° SSE 05:52:12 10° E
Cosmos 1725 Rocket 4.1 05:44:33 10° NNW 05:50:37 54° W 05:56:42 10° SSW
CZ-4C R/B 3.4 05:47:34 10° WNW 05:53:03 36° N 05:59:31 10° ENE
ALOS 3.0 05:50:41 10° N 05:54:50 32° WNW 05:58:57 10° SW
Cosmos 1400 Rocket 2.8 05:51:07 10° SSW 05:55:08 68° WNW 05:59:15 10° N
Cosmos 192 4.3 05:50:50 10° NNW 05:55:44 70° WSW 06:00:37 10° SSE
Cosmos 2084 Rocket 4.4 05:51:57 10° NW 05:56:15 44° NNE 06:00:33 10° ESE
Cosmos 1954 Rocket 4.0 05:51:31 10° SSW 05:56:51 81° WNW 06:02:13 10° NNE
Cosmos 1869 4.3 05:53:58 10° SW 05:57:18 25° WNW 06:00:40 10° N
Cosmos 2360 Rocket 4.3 05:55:17 10° NNW 05:58:11 14° N 06:01:06 10° NE
Cosmos 2123 Rocket 4.0 05:52:05 10° SSW 05:58:22 67° WNW 06:04:40 10° N
Cosmos 1943 Rocket 3.8 05:56:44 10° WNW 05:58:44 12° W 06:00:45 10° WSW
Cosmos 407 Rocket 3.8 05:53:43 10° SW 05:58:50 47° NW 06:03:57 10° NNE
Cosmos 1697 Rocket 4.0 05:56:43 10° NNW 06:01:57 37° NE 06:07:10 10° ESE
USA 215 3.4 05:56:00 10° E 06:02:32 73° N 06:09:03 10° WNW
